Kuvagalleria




Virtuaalihevonen / a SIM game horse

R.K. Cadence

KUOLLUT 2.1.2008
Virallinen nimi R.K. Cadence
Kutsumanimi Kati
Sukupuoli Tamma
Syntynyt/ik� 05.09.2006 / 16-vuotias
S�k�korkeus 160cm
Rotu Amerikkalais-ranskalainen
Painotus Ravit
Koulutustaso Ravuri
Voittosumma 80 004v�
Enn�tys 10,0aly - 11,5ake - 14,6akpxx - 16,6pi
Statistiikka 92: 9-10-10-10
Kasvattaja Ravitalli Kiri
Omistaja RT Pronssi

Luonnekuvaus

Hoitaessa: Kati p��st�� karsinaansa kenet vain ja on hyvin luottavainen. Vieraita haistelee mutta antaa hoitaa itse��n. Aivan pienimpi� ei tulisi kuitenkaan Katin karsinaan p��st�� koska riehuvat tai pelokkaat ihmiset saavat Katin hyvin varautuneeksi. Puremaa tai potkua ei kuitenkaan tarvi kenenk��n Katilta odottaa. Tuttujen hoitajien kanssa Kati on hyvin leikkis� ja hellyydenkipe�.

Ajaessa: Katilta l�ytyy kyll� virtaa! Oudon ohjastajan kanssa saattaa olla hieman varautunut ja s�ikky� mit� sattuu, mutta tutun ohjastajan kanssa juokseminen sujuu kuin tanssi. Volttauksessa Kati on hermostunut ja kiihdytyksess� saattaa ottaa tosi helposti laukan. Autol�hd�iss� todella nopea l�htij�. Kest�v� tamma, jaksaa vaikka mit�!

Aitauksessa: Oikea luimistelija! Luimii, luimii, luimii ja luimii muille hevosille. Ikin� ei ole purrut eik� potkinut muita hevosia kuitenkaan uhkailuistaan huolimatta. Kun Katia haetaan tarhasta luimii ihmisillekkin. Sit� ei kuitenkaan tarvitse pel�t�.

Kengitt�ess�, el�inl��k�rill� & kuljetuksessa: Kengitt�ess� on varautunut mutta on ihan kiltisti. Saattaa korskua pelokkaana v�lill�. El�inl��k�rist� ei kokemuksia, mutta luulemme Katin olevan suhteellisen pelokas. Menee ihan kiltisti vinkkaan. On paljon hyvi� kokemuksia kuljetuksesta joten melkeinp� tykk�� kuljetuksesta :D

Sukutaulu

i: Cator DT ii: Ramses D�Ath�e
ie: JT Novaspace
e: Luciferia Darkness ei: Nine Inch Seth
ee: Jam Serac

Kilpailukalenteri

PVM Paikka Sija Aika Voittosumma
12.10.06 RT Kiri Koel�ht�, l�pi 26,9kex 50v�
29.1.07 Koronj�rvi (villit) 11/16 28,0ke 0v�
1.2.07 RR Unikuva HLO(5) - 0v�
13.2.07 Sarin PT 4/9 25,0ke 200v�
17.2.07 Kerystonin Kartano 4/13 21,8ke 350v�
18.2.07 Sarin PT 3/16 26,6ke 300v�
21.2.07 Sarin PT 10/16 27,0kex 0v�
22.2.07 RR Unikuva 5/16 23,0ke 200v�
25.2.07 RT Perhosvaikutus 4/16 21,7ke 900v�
28.2.07 Kriss (Pronssi) 10/12 21,5ake 0v�
2.3.2007 RR Unikuva 2/16 23,3ly 1000v�
11.3.2007 RT Silwer 7/11 25,1ake 0v�
17.3.2007 RR Unikuva 5/13 25,5kp 200v�
17.3.2007 Kriss (villit) 2/8 19,3kpx 450v�
25.3.2007 Starberry 1/16 17,1ke 2000v�
26.3.2007 Belligerent 11/12 30,0api 0v�
28.3.2007 RR Ajaton (villit) 2/10 19,7aly 1200v�
31.3.2007 RT Danone 8/12 20,6akp 0v�
1.4.2007 RR Unikuva 11/16 24,0pi 0v�
4.4.2007 Belligerent 11/16 30,9kex 0v�
8.4.2007 Taikasumun talli (villit) 6/12 18,1kex 0v�
9.4.2007 RR Ajaton (villit) 3/11 21,4kex 1200v�
12.4.2007 PT Hennan Hepat 11/16 21,4ke 0v�
14.4.2007 Starberry 11/16 1.23,4kexx 0v�
15.4.2007 Taikasumun talli (villit) 3/9 18,1ke 500v�
17.4.2007 Kerystonin Kartano 3/12 18,4ake 900v�
20.4.2007 RR Ajaton (villit) 4/11 17,6alyx 1500v�
21.4.2007 Starberry 3/16 22,5ly 600v�
22.4.2007 Taikasumun talli (villit) HLL - 0v�
23.4.07 RR Silwer 3/12 20,0aly 610v�
29.4.2007 Taikasumun talli (villit) 6/9 16,2ke 0v�
29.4.2007 RR Pronssi (villit) HLO - 0v�
1.5.2007 RR Unikuva 9/16 17,6ly 0v�
5.5.2007 RR Pronssi 6/16 17,4ke 0v�
8.5.2007 RT anio (villit) hml (1.20,4) - 0v�
12.5.2007 Afterline 9/16 24,6ake 0v�
13.5.2007 RT anio 15/16 19,7ke 0v�
16.5.2007 RR Unikuva 12/15 21,4pi 0v�
20.5.2007 Starberry 4/13 11,8ke 400v�
22.5.2007 RR Ajaton HPL - 0v�
27.5.2007 RT anio 4/16 16,8ke 750v�
5.6.07 Narrilaivan 10/16 17,3kpx 0v�
8.6.07 RR Pronssi 13/16 19,0ly 0v�
10.6.07 Koronj�rvi 5/9 15,6ake 200v�
12.6.07 Starberry 9/14 15,7ke 0v�
15.6.07 RR Unikuva 6/16 17,7ke 100v�
16.6.07 Narrilaivan 1/8 15,9akp 1200v�
18.6.07 Savitaival&Kotikunnas 12/12 23,2ake 0v�
20.6.07 Loren 2/12 16,0ake 1000v�
1.7.07 RT Anio 10/12 14,2aly 0v�
2.7.07 Narrilaivan 5/12 14,2aly 200v�
4.7.07 RR Ajaton 2/12 14,6ake 1200v�
5.7.07 RR Pronssi 12/12 18,7akp 0v�
8.7.07 Narrilaivan 5/12 14,3aly 400v�
13.7.07 Tempo&Foretoken 3/12 12,6kex 800v�
22.7.07 Narrilaivan 1/12 11,9aly 2500v�
24.7.07 RR Ajaton 5/15 14,9ke 400v�
26.7.07 RR Unikuva 11/16 18,2ke 0v�
28.7.07 Starberry 1/12 13,0ake 2500v�
4.8.07 Fire's Arabians 12/16 15,3ly 0v�
6.8.07 RR Ajaton 5/10 13,1alyx 400v�
11.8.07 RR Unikuva 1/12 10,0aly 2500v�
14.8.07 RR Silwer 4/8 13,4aly 444v�
17.8.07 RR Pronssi (Myst.Yank.Mem.) 4/12 16,6pi 5000v�
26.8.07 Loren 3/16 15,8ke 500v�
31.8.07 Yep Trotters (villit) 5/10 21,3pi 250v�
1.9.07 Ionic (villit) 1/10 P��L�HT� 11,5ake 10 000v�
11.9.07 Loren 5/12 15,6ake 200v�
15.9.07 RR Pronssi 4/12 13,7ake 400v�
15.9.07 Ionic (villit) 2/7 P��L�HT� 20,2pix 7500v�
20.9.07 Vilahdus 6/12 17,3ake 150v�
23.9.07 Vergint 9/16 30,9pi 0v�
30.9.07 Fanny (ajaton) 9/16 15,7kex 0v�
30.9.07 Vergint (villit) 3/7 23,3pixx 1000v�
1.10.07 RR Pronssi 2/9 18,2akp 1250v�
10.10.07 Ionic (villit) 1/10 P��L�HT� 17,0api 15000v�
11.10.07 RR Pronssi 6/11 19,6api 100v�
21.10.07 RR Gloria 3/16 12,1ke 900v�
30.10.07 Savitaival (villit) 4/12 12,7aly 550v�
31.10.07 Fanny (Ajaton) 7/12 15,8alyxx 0v�
1.11.07 RR Unikuva 1/5 15,8alyx 2000v�
5.11.07 Taikasumun talli 2/7 14,6akpxx 750v�
12.11.07 RT Loisto 8/12 21,2api 0v�
16.11.07 RT Danone 1/9 Danone GP karsinta 15,1aly 3000v�
16.11.07 RT Danone 5/12 Danone GP finaali 16,4aly 500v�
17.11.07 RR Pronssi HML (18,2ke) - 0v�
21.11.07 Ionic 8/12 16,0alyx 0v�
22.11.07 Hakaniemen ravurit 8/12 16,8aly 0v�
24.11.07 Orilampi 2/12 13,2alyx 1200v�
25.11.07 RR Unikuva 9/12 17,6alyxx 0v�
30.11.07 RR Pronssi (villit) 2/11 22,1api 3000v�
30.11.07 Ionic 11/14 30,2pi 0v�

J�lkel�iset

Syntynyt Nimi Is� Omistaja
15.3.07 o. P.R. Harmless Boomerang Loisto Ratatalli Tempo
21.4.07 o. P.R. Emperor Simply Splendid Team Infinite
24.10.07 t. P.R. Cadelaria Inspiration Jazz Loren
7.12.07 t. P.R. Raisie Rain Life Is Life Memory Stable
Layout � Tidamin Kopiointisivut Kuvat � Hippola/Jukka Niskanen
Hosted by www.Geocities.ws

1